STARLINK-30544, 58055

Orbit data source: Space-Track

STARLINK-30544, 58055 is a payload satellite owned by SpaceX/Seattle (US) in LEO that was launched on Fri, 13 Oct 2023 UTC via an FALCON 9 launch vehicle from the Air Force Eastern Test Range (AFETR). Payload-class satellites include a variety of spacecraft equipped with specific instruments for various scientific and technological missions. These include communications satellites like Starlink; space stations such as the ISS; scientific satellites like the Hubble; Earth observation satellites from companies like Planet Labs, Umbra, and HawkEye 360; GPS; miniature CubeSats for education and research; and military/defense satellites.

Loading next visibility...
Identifier
58055, 2023-158E
Orbit
LEO
Country
Flag of USUS
Related business
Manufacturer
SpaceX/Seattle
Mission
Operational Commercial Communications
Bus & Motor
STARLINK V2M, Unknown motor
Mass
730 kg wet, ~700 kg dry
Launch date (UTC)
2023-10-13 (3 years ago)
Launch vehicle
FALCON 9
Launch site
Air Force Eastern Test Range (AFETR)
Object type
Payload
Rocket body
Debris
Shape & HBR
Box + 2 Pan, 17.7 m
Radar Cross Section
33.884 m², Large (>1 m²)

Expand to show TLE details & history
Last TLE update: 3 days ago

TLE from 3 days ago
0 STARLINK-30544
1 58055U 23158E   26171.01926861 -.00000270  00000-0 -30127-6 0  9992
2 58055  43.0004 168.8294 0001354 272.0872  87.9824 15.27574826149228
Epoch: 2026-06-20T00:27Z
TLE epoch observation values (Epoch: 2026-06-20T00:27:44.807Z)
Latitude
-0.00008°
Longitude
-106.34728°
Altitude
482.807 km
Speed
7.626 km/s
True Right ascension
11h 15m 19s
True Declination
0° 00' 00"
Sunlit
Object was in daylight at epoch
Visualization orbit readout
Latitude
Unknown
Longitude
Unknown
Altitude
Unknown
Speed
Unknown
Apparent Right ascension
Unknown
Apparent Declination
Unknown
Sunlit
N/A
Visualization observer readout
Local Sidereal Time
00:31:35
Azimuth
Unknown
Elevation
Unknown
Doppler factor
Unknown
Orbital elements
Apogee altitude
485.939 km
Perigee altitude
484.08 km
Semi-major axis
6,863.147 km
Eccentricity
0.00014
Inclination
43.0004°
RAAN
168.8294°
Arg. of periapsis
272.0872°
True anomaly
87.99791°
Mean anomaly
87.9824°
Eccentric anomaly
87.99015°
Mean motion
3.81732 °/min
Orbital period
94.31 mins
BSTAR
-3.0127e-7
Loading maneuver chart data...
Computing Atmospheric mass density...
Loading historical data...
Loading historical data...
Loading historical data...
Loading historical data...
Loading historical data...
Loading historical data...
Loading historical data...

Documentation

Showing up to 5 results
|